Wetterdaten: Sonntag, 12.10.2014
Datum Zeit Temperatur Luftfeuchte Luftdruck Regen Wind Richtung Richtung Taupunkt Windchill Windben
12.10.2014 00:00 8,9 C 90 % 1019,2 hPa 0,0 l/m 0,0 km/h (0 Bft) S-SO 157 7,4 C 22,8 C 0,0 km/h (0 Bft)
12.10.2014 00:10 9,3 C 90 % 1019,4 hPa 0,0 l/m 0,0 km/h (0 Bft) S-SO 157 7,7 C 22,8 C 0,0 km/h (0 Bft)
12.10.2014 00:20 9,5 C 90 % 1019,4 hPa 0,0 l/m 0,0 km/h (0 Bft) S-SO 157 7,9 C 22,8 C 0,0 km/h (0 Bft)
12.10.2014 00:30 9,0 C 90 % 1019,4 hPa 0,0 l/m 0,0 km/h (0 Bft) S-SO 157 7,4 C 22,8 C 0,0 km/h (0 Bft)
12.10.2014 00:40 8,4 C 90 % 1019,4 hPa 0,0 l/m 0,0 km/h (0 Bft) S-SO 157 6,9 C 22,8 C 0,0 km/h (0 Bft)
12.10.2014 00:50 8,2 C 90 % 1019,2 hPa 0,0 l/m 0,0 km/h (0 Bft) S-SO 157 6,7 C 22,8 C 0,0 km/h (0 Bft)
12.10.2014 01:00 8,3 C 90 % 1019,2 hPa 0,0 l/m 0,0 km/h (0 Bft) S-SO 157 6,8 C 22,8 C 0,0 km/h (0 Bft)
12.10.2014 01:10 7,7 C 90 % 1019,2 hPa 0,0 l/m 0,0 km/h (0 Bft) S-SO 157 6,2 C 22,8 C 0,0 km/h (0 Bft)
12.10.2014 01:18 7,8 C 90 % 1019,2 hPa 0,0 l/m 0,0 km/h (0 Bft) S-SO 157 6,3 C 22,8 C 0,0 km/h (0 Bft)
12.10.2014 01:20 7,8 C 90 % 1019,2 hPa 0,0 l/m 0,0 km/h (0 Bft) S-SO 157 6,3 C 22,8 C 0,0 km/h (0 Bft)
12.10.2014 01:30 8,6 C 91 % 1019,0 hPa 0,0 l/m 0,0 km/h (0 Bft) S-SO 157 7,2 C 22,8 C 0,0 km/h (0 Bft)
12.10.2014 01:40 8,1 C 91 % 1019,0 hPa 0,0 l/m 0,0 km/h (0 Bft) S-SO 157 6,7 C 22,8 C 0,0 km/h (0 Bft)
12.10.2014 01:50 8,4 C 91 % 1019,1 hPa 0,0 l/m 0,0 km/h (0 Bft) S-SO 157 7,0 C 22,8 C 0,0 km/h (0 Bft)
12.10.2014 02:00 8,0 C 91 % 1019,1 hPa 0,0 l/m 0,0 km/h (0 Bft) S-SO 157 6,6 C 22,8 C 0,0 km/h (0 Bft)
12.10.2014 02:10 8,1 C 91 % 1018,9 hPa 0,0 l/m 0,0 km/h (0 Bft) S-SO 157 6,7 C 22,8 C 0,0 km/h (0 Bft)
12.10.2014 02:20 7,8 C 91 % 1018,9 hPa 0,0 l/m 0,0 km/h (0 Bft) S-SO 157 6,4 C 22,8 C 0,0 km/h (0 Bft)
12.10.2014 02:30 7,9 C 91 % 1019,1 hPa 0,0 l/m 0,0 km/h (0 Bft) S-SO 157 6,5 C 22,8 C 0,0 km/h (0 Bft)
12.10.2014 02:40 8,0 C 91 % 1019,1 hPa 0,0 l/m 0,0 km/h (0 Bft) S-SO 157 6,6 C 22,8 C 0,0 km/h (0 Bft)
12.10.2014 02:50 7,6 C 91 % 1019,1 hPa 0,0 l/m 0,0 km/h (0 Bft) S-SO 157 6,2 C 22,8 C 0,0 km/h (0 Bft)
12.10.2014 03:00 7,6 C 91 % 1019,1 hPa 0,0 l/m 0,0 km/h (0 Bft) S-SO 157 6,2 C 22,8 C 0,0 km/h (0 Bft)
12.10.2014 03:10 7,7 C 91 % 1019,1 hPa 0,0 l/m 0,0 km/h (0 Bft) S-SO 157 6,3 C 22,8 C 0,0 km/h (0 Bft)
12.10.2014 03:20 8,5 C 92 % 1019,1 hPa 0,0 l/m 0,0 km/h (0 Bft) S-SO 157 7,3 C 22,8 C 0,0 km/h (0 Bft)
12.10.2014 03:30 8,2 C 92 % 1019,0 hPa 0,0 l/m 0,0 km/h (0 Bft) S-SO 157 7,0 C 22,8 C 0,0 km/h (0 Bft)
12.10.2014 03:40 7,8 C 92 % 1019,0 hPa 0,0 l/m 0,0 km/h (0 Bft) S-SO 157 6,6 C 22,8 C 0,0 km/h (0 Bft)
12.10.2014 03:50 7,5 C 92 % 1018,8 hPa 0,0 l/m 0,0 km/h (0 Bft) S-SO 157 6,3 C 22,8 C 0,0 km/h (0 Bft)
12.10.2014 04:00 7,6 C 92 % 1018,8 hPa 0,0 l/m 0,0 km/h (0 Bft) S-SO 157 6,4 C 22,8 C 0,0 km/h (0 Bft)
12.10.2014 04:10 7,1 C 92 % 1018,8 hPa 0,0 l/m 0,0 km/h (0 Bft) S-SO 157 5,9 C 22,8 C 0,0 km/h (0 Bft)
12.10.2014 04:18 7,1 C 92 % 1018,8 hPa 0,0 l/m 0,0 km/h (0 Bft) S-SO 157 5,9 C 22,8 C 0,0 km/h (0 Bft)
12.10.2014 04:20 7,1 C 92 % 1018,8 hPa 0,0 l/m 0,0 km/h (0 Bft) S-SO 157 5,9 C 22,8 C 0,0 km/h (0 Bft)
12.10.2014 04:30 6,9 C 92 % 1018,6 hPa 0,0 l/m 0,0 km/h (0 Bft) S-SO 157 5,7 C 22,8 C 0,0 km/h (0 Bft)
12.10.2014 04:40 7,2 C 92 % 1018,6 hPa 0,0 l/m 0,0 km/h (0 Bft) S-SO 157 6,0 C 22,8 C 0,0 km/h (0 Bft)
12.10.2014 04:50 7,1 C 92 % 1018,7 hPa 0,0 l/m 0,0 km/h (0 Bft) S-SO 157 5,9 C 22,8 C 0,0 km/h (0 Bft)
12.10.2014 05:00 6,9 C 92 % 1018,7 hPa 0,0 l/m 0,0 km/h (0 Bft) S-SO 157 5,7 C 22,8 C 0,0 km/h (0 Bft)
12.10.2014 05:10 7,3 C 92 % 1018,6 hPa 0,0 l/m 0,0 km/h (0 Bft) S-SO 157 6,1 C 22,8 C 0,0 km/h (0 Bft)
12.10.2014 05:20 7,2 C 92 % 1018,6 hPa 0,0 l/m 0,0 km/h (0 Bft) S-SO 157 6,0 C 22,8 C 0,0 km/h (0 Bft)
12.10.2014 05:30 6,8 C 93 % 1018,6 hPa 0,0 l/m 0,0 km/h (0 Bft) S-SO 157 5,7 C 22,8 C 0,0 km/h (0 Bft)
12.10.2014 05:40 6,6 C 93 % 1018,6 hPa 0,0 l/m 0,0 km/h (0 Bft) S-SO 157 5,6 C 22,8 C 0,0 km/h (0 Bft)
12.10.2014 05:50 6,4 C 93 % 1018,6 hPa 0,0 l/m 0,0 km/h (0 Bft) S-SO 157 5,4 C 22,8 C 0,0 km/h (0 Bft)
12.10.2014 06:00 6,8 C 93 % 1018,6 hPa 0,0 l/m 0,0 km/h (0 Bft) S-SO 157 5,7 C 22,8 C 0,0 km/h (0 Bft)
12.10.2014 06:10 6,6 C 93 % 1018,5 hPa 0,0 l/m 0,0 km/h (0 Bft) S-SO 157 5,6 C 22,8 C 0,0 km/h (0 Bft)
12.10.2014 06:20 6,4 C 93 % 1018,5 hPa 0,0 l/m 0,0 km/h (0 Bft) S-SO 157 5,4 C 22,8 C 0,0 km/h (0 Bft)
12.10.2014 06:30 6,5 C 93 % 1018,3 hPa 0,0 l/m 0,0 km/h (0 Bft) S-SO 157 5,5 C 22,8 C 0,0 km/h (0 Bft)
12.10.2014 06:40 6,1 C 93 % 1018,3 hPa 0,0 l/m 0,0 km/h (0 Bft) S-SO 157 5,1 C 22,8 C 0,0 km/h (0 Bft)
12.10.2014 06:50 6,2 C 94 % 1018,2 hPa 0,0 l/m 0,0 km/h (0 Bft) S-SO 157 5,3 C 22,8 C 0,0 km/h (0 Bft)
12.10.2014 07:00 6,1 C 94 % 1018,2 hPa 0,0 l/m 0,0 km/h (0 Bft) S-SO 157 5,2 C 22,8 C 0,0 km/h (0 Bft)
12.10.2014 07:10 5,9 C 95 % 1018,2 hPa 0,0 l/m 0,0 km/h (0 Bft) S-SO 157 5,2 C 22,8 C 0,0 km/h (0 Bft)
12.10.2014 07:18 6,1 C 94 % 1018,2 hPa 0,0 l/m 0,0 km/h (0 Bft) S-SO 157 5,2 C 22,8 C 0,0 km/h (0 Bft)
12.10.2014 07:20 6,1 C 94 % 1018,2 hPa 0,0 l/m 0,0 km/h (0 Bft) S-SO 157 5,2 C 22,8 C 0,0 km/h (0 Bft)
12.10.2014 07:30 5,9 C 95 % 1018,1 hPa 0,0 l/m 0,0 km/h (0 Bft) S-SO 157 5,2 C 22,8 C 0,0 km/h (0 Bft)
12.10.2014 07:40 5,9 C 95 % 1018,1 hPa 0,0 l/m 0,0 km/h (0 Bft) S-SO 157 5,2 C 22,8 C 0,0 km/h (0 Bft)
12.10.2014 07:50 6,1 C 94 % 1017,9 hPa 0,0 l/m 0,0 km/h (0 Bft) S-SO 157 5,2 C 22,8 C 0,0 km/h (0 Bft)
12.10.2014 08:00 5,9 C 95 % 1017,9 hPa 0,0 l/m 0,0 km/h (0 Bft) S-SO 157 5,2 C 22,8 C 0,0 km/h (0 Bft)
12.10.2014 08:10 5,8 C 95 % 1018,0 hPa 0,0 l/m 0,0 km/h (0 Bft) S-SO 157 5,1 C 22,8 C 0,0 km/h (0 Bft)
12.10.2014 08:20 6,5 C 95 % 1018,0 hPa 0,0 l/m 0,0 km/h (0 Bft) S-SO 157 5,8 C 22,8 C 0,0 km/h (0 Bft)
12.10.2014 08:30 6,8 C 95 % 1017,8 hPa 0,0 l/m 0,0 km/h (0 Bft) S-SO 157 6,1 C 22,8 C 0,0 km/h (0 Bft)
12.10.2014 08:40 6,7 C 95 % 1017,8 hPa 0,0 l/m 0,0 km/h (0 Bft) S-SO 157 6,0 C 22,8 C 0,0 km/h (0 Bft)
12.10.2014 08:50 7,1 C 94 % 1017,9 hPa 0,0 l/m 0,0 km/h (0 Bft) S-SO 157 6,2 C 22,8 C 0,0 km/h (0 Bft)
12.10.2014 09:00 7,3 C 95 % 1017,9 hPa 0,0 l/m 0,0 km/h (0 Bft) S-SO 157 6,6 C 22,8 C 0,0 km/h (0 Bft)
12.10.2014 09:10 7,6 C 95 % 1017,8 hPa 0,0 l/m 0,0 km/h (0 Bft) S-SO 157 6,9 C 22,8 C 0,0 km/h (0 Bft)
12.10.2014 09:20 8,2 C 94 % 1017,8 hPa 0,0 l/m 0,0 km/h (0 Bft) S-SO 157 7,3 C 22,8 C 0,0 km/h (0 Bft)
12.10.2014 09:30 8,4 C 95 % 1017,9 hPa 0,0 l/m 0,0 km/h (0 Bft) S-SO 157 7,6 C 22,8 C 0,0 km/h (0 Bft)
12.10.2014 09:40 8,9 C 95 % 1017,9 hPa 0,0 l/m 0,0 km/h (0 Bft) S-SO 157 8,1 C 22,8 C 0,0 km/h (0 Bft)
12.10.2014 09:50 9,3 C 95 % 1017,8 hPa 0,0 l/m 0,0 km/h (0 Bft) S-SO 157 8,5 C 22,8 C 0,0 km/h (0 Bft)
12.10.2014 10:00 9,8 C 95 % 1017,8 hPa 0,0 l/m 0,0 km/h (0 Bft) S-SO 157 9,0 C 22,8 C 0,0 km/h (0 Bft)
12.10.2014 10:10 10,3 C 95 % 1018,1 hPa 0,0 l/m 0,0 km/h (0 Bft) S-SO 157 9,5 C 22,8 C 0,0 km/h (0 Bft)
12.10.2014 10:18 11,3 C 94 % 1018,1 hPa 0,0 l/m 0,0 km/h (0 Bft) S-SO 157 10,4 C 22,8 C 0,0 km/h (0 Bft)
12.10.2014 10:20 11,3 C 94 % 1018,1 hPa 0,0 l/m 0,0 km/h (0 Bft) S-SO 157 10,4 C 22,8 C 0,0 km/h (0 Bft)
12.10.2014 10:30 11,8 C 94 % 1017,9 hPa 0,0 l/m 0,0 km/h (0 Bft) S-SO 157 10,9 C 22,8 C 0,0 km/h (0 Bft)
12.10.2014 10:40 11,9 C 94 % 1017,9 hPa 0,0 l/m 0,0 km/h (0 Bft) S-SO 157 11,0 C 22,8 C 0,0 km/h (0 Bft)
12.10.2014 10:50 12,4 C 94 % 1018,0 hPa 0,0 l/m 0,0 km/h (0 Bft) S-SO 157 11,5 C 22,8 C 0,0 km/h (0 Bft)
12.10.2014 11:00 12,6 C 93 % 1018,0 hPa 0,0 l/m 0,0 km/h (0 Bft) S-SO 157 11,5 C 22,8 C 0,0 km/h (0 Bft)
12.10.2014 11:10 12,9 C 93 % 1017,8 hPa 0,0 l/m 0,0 km/h (0 Bft) S-SO 157 11,8 C 22,8 C 0,0 km/h (0 Bft)
12.10.2014 11:20 14,3 C 88 % 1017,8 hPa 0,0 l/m 0,0 km/h (0 Bft) S-SO 157 12,3 C 22,8 C 0,0 km/h (0 Bft)
12.10.2014 11:30 15,1 C 74 % 1017,8 hPa 0,0 l/m 0,0 km/h (0 Bft) S-SO 157 10,5 C 22,8 C 0,0 km/h (0 Bft)
12.10.2014 11:40 15,9 C 77 % 1017,8 hPa 0,0 l/m 0,0 km/h (0 Bft) S-SO 157 11,9 C 22,8 C 0,0 km/h (0 Bft)
12.10.2014 11:50 15,9 C 73 % 1017,4 hPa 0,0 l/m 0,0 km/h (0 Bft) S-SO 157 11,1 C 22,8 C 0,0 km/h (0 Bft)
12.10.2014 12:00 16,6 C 71 % 1017,4 hPa 0,0 l/m 0,0 km/h (0 Bft) S-SO 157 11,3 C 22,8 C 0,0 km/h (0 Bft)
12.10.2014 12:10 16,7 C 72 % 1017,5 hPa 0,0 l/m 0,0 km/h (0 Bft) S-SO 157 11,6 C 22,8 C 0,0 km/h (0 Bft)
12.10.2014 12:20 17,6 C 74 % 1017,5 hPa 0,0 l/m 0,0 km/h (0 Bft) S-SO 157 12,9 C 22,8 C 0,0 km/h (0 Bft)
12.10.2014 12:30 19,0 C 73 % 1017,2 hPa 0,0 l/m 0,0 km/h (0 Bft) S-SO 157 14,0 C 22,8 C 0,0 km/h (0 Bft)
12.10.2014 12:40 18,9 C 70 % 1017,2 hPa 0,0 l/m 0,0 km/h (0 Bft) S-SO 157 13,3 C 22,8 C 0,0 km/h (0 Bft)
12.10.2014 12:50 20,0 C 68 % 1017,4 hPa 0,0 l/m 0,0 km/h (0 Bft) S-SO 157 13,9 C 22,8 C 0,0 km/h (0 Bft)
12.10.2014 13:00 19,6 C 70 % 1017,4 hPa 0,0 l/m 0,0 km/h (0 Bft) S-SO 157 14,0 C 22,8 C 0,0 km/h (0 Bft)
12.10.2014 13:10 20,6 C 61 % 1017,1 hPa 0,0 l/m 0,0 km/h (0 Bft) S-SO 157 12,8 C 22,8 C 0,0 km/h (0 Bft)
12.10.2014 13:20 20,5 C 58 % 1017,1 hPa 0,0 l/m 0,0 km/h (0 Bft) S-SO 157 11,9 C 22,8 C 0,0 km/h (0 Bft)
12.10.2014 13:30 20,3 C 58 % 1016,9 hPa 0,0 l/m 0,0 km/h (0 Bft) S-SO 157 11,8 C 22,8 C 0,0 km/h (0 Bft)
12.10.2014 13:40 21,3 C 56 % 1016,9 hPa 0,0 l/m 0,0 km/h (0 Bft) S-SO 157 12,2 C 22,8 C 0,0 km/h (0 Bft)
12.10.2014 13:50 20,8 C 58 % 1016,8 hPa 0,0 l/m 0,0 km/h (0 Bft) S-SO 157 12,2 C 22,8 C 0,0 km/h (0 Bft)
12.10.2014 14:00 20,2 C 58 % 1016,8 hPa 0,0 l/m 0,0 km/h (0 Bft) S-SO 157 11,7 C 22,8 C 0,0 km/h (0 Bft)
12.10.2014 14:10 19,6 C 59 % 1016,6 hPa 0,0 l/m 0,0 km/h (0 Bft) S-SO 157 11,4 C 22,8 C 0,0 km/h (0 Bft)
12.10.2014 14:20 20,2 C 58 % 1016,6 hPa 0,0 l/m 0,0 km/h (0 Bft) S-SO 157 11,7 C 22,8 C 0,0 km/h (0 Bft)
12.10.2014 14:30 20,0 C 58 % 1016,3 hPa 0,0 l/m 0,0 km/h (0 Bft) S-SO 157 11,5 C 22,8 C 0,0 km/h (0 Bft)
12.10.2014 14:40 20,8 C 55 % 1016,3 hPa 0,0 l/m 0,0 km/h (0 Bft) S-SO 157 11,4 C 22,8 C 0,0 km/h (0 Bft)
12.10.2014 14:50 20,9 C 55 % 1016,3 hPa 0,0 l/m 0,0 km/h (0 Bft) S-SO 157 11,5 C 22,8 C 0,0 km/h (0 Bft)
12.10.2014 15:00 21,3 C 54 % 1016,3 hPa 0,0 l/m 0,0 km/h (0 Bft) S-SO 157 11,6 C 22,8 C 0,0 km/h (0 Bft)
12.10.2014 15:10 21,4 C 54 % 1016,3 hPa 0,0 l/m 0,0 km/h (0 Bft) S-SO 157 11,7 C 22,8 C 0,0 km/h (0 Bft)
12.10.2014 15:20 21,2 C 54 % 1016,3 hPa 0,0 l/m 0,0 km/h (0 Bft) S-SO 157 11,5 C 22,8 C 0,0 km/h (0 Bft)
12.10.2014 15:30 21,9 C 55 % 1016,1 hPa 0,0 l/m 0,0 km/h (0 Bft) S-SO 157 12,4 C 22,8 C 0,0 km/h (0 Bft)
12.10.2014 15:40 21,2 C 56 % 1016,1 hPa 0,0 l/m 0,0 km/h (0 Bft) S-SO 157 12,1 C 22,8 C 0,0 km/h (0 Bft)
12.10.2014 15:50 21,1 C 56 % 1015,8 hPa 0,0 l/m 0,0 km/h (0 Bft) S-SO 157 12,0 C 22,8 C 0,0 km/h (0 Bft)
12.10.2014 16:00 21,3 C 56 % 1015,8 hPa 0,0 l/m 0,0 km/h (0 Bft) S-SO 157 12,2 C 22,8 C 0,0 km/h (0 Bft)
12.10.2014 16:08 21,0 C 57 % 1015,4 hPa 0,0 l/m 0,0 km/h (0 Bft) S-SO 157 12,1 C 22,8 C 0,0 km/h (0 Bft)
12.10.2014 16:10 21,0 C 57 % 1015,4 hPa 0,0 l/m 0,0 km/h (0 Bft) S-SO 157 12,1 C 22,8 C 0,0 km/h (0 Bft)
12.10.2014 16:20 20,9 C 57 % 1015,4 hPa 0,0 l/m 0,0 km/h (0 Bft) S-SO 157 12,1 C 22,8 C 0,0 km/h (0 Bft)
12.10.2014 16:30 20,6 C 58 % 1015,2 hPa 0,0 l/m 0,0 km/h (0 Bft) S-SO 157 12,0 C 22,8 C 0,0 km/h (0 Bft)
12.10.2014 16:40 19,9 C 61 % 1015,2 hPa 0,0 l/m 0,0 km/h (0 Bft) S-SO 157 12,2 C 22,8 C 0,0 km/h (0 Bft)
12.10.2014 16:50 19,0 C 66 % 1015,1 hPa 0,0 l/m 0,0 km/h (0 Bft) S-SO 157 12,5 C 22,8 C 0,0 km/h (0 Bft)
12.10.2014 17:00 18,6 C 69 % 1015,1 hPa 0,0 l/m 0,0 km/h (0 Bft) S-SO 157 12,8 C 22,8 C 0,0 km/h (0 Bft)
12.10.2014 17:10 18,3 C 70 % 1015,0 hPa 0,0 l/m 0,0 km/h (0 Bft) S-SO 157 12,7 C 22,8 C 0,0 km/h (0 Bft)
12.10.2014 17:20 18,0 C 71 % 1015,0 hPa 0,0 l/m 0,0 km/h (0 Bft) S-SO 157 12,7 C 22,8 C 0,0 km/h (0 Bft)
12.10.2014 17:30 17,3 C 72 % 1014,8 hPa 0,0 l/m 0,0 km/h (0 Bft) S-SO 157 12,2 C 22,8 C 0,0 km/h (0 Bft)
12.10.2014 17:40 16,8 C 75 % 1014,8 hPa 0,0 l/m 0,0 km/h (0 Bft) S-SO 157 12,3 C 22,8 C 0,0 km/h (0 Bft)
12.10.2014 17:50 16,6 C 76 % 1014,4 hPa 0,0 l/m 0,0 km/h (0 Bft) S-SO 157 12,3 C 22,8 C 0,0 km/h (0 Bft)
12.10.2014 18:00 16,2 C 77 % 1014,4 hPa 0,0 l/m 0,0 km/h (0 Bft) S-SO 157 12,2 C 22,8 C 0,0 km/h (0 Bft)
12.10.2014 18:10 15,9 C 78 % 1014,5 hPa 0,0 l/m 0,0 km/h (0 Bft) S-SO 157 12,1 C 22,8 C 0,0 km/h (0 Bft)
12.10.2014 18:20 15,6 C 78 % 1014,5 hPa 0,0 l/m 0,0 km/h (0 Bft) S-SO 157 11,8 C 22,8 C 0,0 km/h (0 Bft)
12.10.2014 18:30 15,4 C 78 % 1014,3 hPa 0,0 l/m 0,0 km/h (0 Bft) S-SO 157 11,6 C 22,8 C 0,0 km/h (0 Bft)
12.10.2014 18:40 14,8 C 79 % 1014,3 hPa 0,0 l/m 0,0 km/h (0 Bft) S-SO 157 11,2 C 22,8 C 0,0 km/h (0 Bft)
12.10.2014 18:50 14,4 C 80 % 1014,4 hPa 0,0 l/m 0,0 km/h (0 Bft) S-SO 157 11,0 C 22,8 C 0,0 km/h (0 Bft)
12.10.2014 19:00 14,1 C 82 % 1014,4 hPa 0,0 l/m 0,0 km/h (0 Bft) S-SO 157 11,1 C 22,8 C 0,0 km/h (0 Bft)
12.10.2014 19:08 13,2 C 82 % 1014,2 hPa 0,0 l/m 0,0 km/h (0 Bft) S-SO 157 10,2 C 22,8 C 0,0 km/h (0 Bft)
12.10.2014 19:10 13,2 C 82 % 1014,2 hPa 0,0 l/m 0,0 km/h (0 Bft) S-SO 157 10,2 C 22,8 C 0,0 km/h (0 Bft)
12.10.2014 19:20 13,1 C 83 % 1014,2 hPa 0,0 l/m 0,0 km/h (0 Bft) S-SO 157 10,3 C 22,8 C 0,0 km/h (0 Bft)
12.10.2014 19:30 13,0 C 85 % 1014,2 hPa 0,0 l/m 0,0 km/h (0 Bft) S-SO 157 10,5 C 22,8 C 0,0 km/h (0 Bft)
12.10.2014 19:40 13,4 C 87 % 1014,2 hPa 0,0 l/m 0,0 km/h (0 Bft) S-SO 157 11,3 C 22,8 C 0,0 km/h (0 Bft)
12.10.2014 19:50 12,6 C 87 % 1014,1 hPa 0,0 l/m 0,0 km/h (0 Bft) S-SO 157 10,5 C 22,8 C 0,0 km/h (0 Bft)
12.10.2014 20:00 12,1 C 87 % 1014,1 hPa 0,0 l/m 0,0 km/h (0 Bft) S-SO 157 10,0 C 22,8 C 0,0 km/h (0 Bft)
12.10.2014 20:10 12,2 C 88 % 1013,9 hPa 0,0 l/m 0,0 km/h (0 Bft) S-SO 157 10,3 C 22,8 C 0,0 km/h (0 Bft)
12.10.2014 20:20 11,9 C 88 % 1013,9 hPa 0,0 l/m 0,0 km/h (0 Bft) S-SO 157 10,0 C 22,8 C 0,0 km/h (0 Bft)
12.10.2014 20:30 11,9 C 89 % 1013,8 hPa 0,0 l/m 0,0 km/h (0 Bft) S-SO 157 10,1 C 22,8 C 0,0 km/h (0 Bft)
12.10.2014 20:40 11,8 C 89 % 1013,8 hPa 0,0 l/m 0,0 km/h (0 Bft) S-SO 157 10,0 C 22,8 C 0,0 km/h (0 Bft)
12.10.2014 20:50 12,0 C 88 % 1013,8 hPa 0,0 l/m 0,0 km/h (0 Bft) S-SO 157 10,1 C 22,8 C 0,0 km/h (0 Bft)
12.10.2014 21:00 10,6 C 88 % 1013,8 hPa 0,0 l/m 0,0 km/h (0 Bft) S-SO 157 8,7 C 22,8 C 0,0 km/h (0 Bft)
12.10.2014 21:10 10,3 C 88 % 1013,6 hPa 0,0 l/m 0,0 km/h (0 Bft) S-SO 157 8,4 C 22,8 C 0,0 km/h (0 Bft)
12.10.2014 21:20 10,2 C 89 % 1013,6 hPa 0,0 l/m 0,0 km/h (0 Bft) S-SO 157 8,5 C 22,8 C 0,0 km/h (0 Bft)
12.10.2014 21:30 10,1 C 89 % 1013,6 hPa 0,0 l/m 0,0 km/h (0 Bft) S-SO 157 8,4 C 22,8 C 0,0 km/h (0 Bft)
12.10.2014 21:40 9,8 C 89 % 1013,6 hPa 0,0 l/m 0,0 km/h (0 Bft) S-SO 157 8,1 C 22,8 C 0,0 km/h (0 Bft)
12.10.2014 21:50 9,6 C 89 % 1013,8 hPa 0,0 l/m 0,0 km/h (0 Bft) S-SO 157 7,9 C 22,8 C 0,0 km/h (0 Bft)
12.10.2014 22:00 9,9 C 90 % 1013,8 hPa 0,0 l/m 0,0 km/h (0 Bft) S-SO 157 8,3 C 22,8 C 0,0 km/h (0 Bft)
12.10.2014 22:08 10,9 C 90 % 1013,6 hPa 0,0 l/m 0,0 km/h (0 Bft) S-SO 157 9,3 C 22,8 C 0,0 km/h (0 Bft)
12.10.2014 22:10 10,9 C 90 % 1013,6 hPa 0,0 l/m 0,0 km/h (0 Bft) S-SO 157 9,3 C 22,8 C 0,0 km/h (0 Bft)
12.10.2014 22:20 9,5 C 89 % 1013,6 hPa 0,0 l/m 0,0 km/h (0 Bft) S-SO 157 7,8 C 22,8 C 0,0 km/h (0 Bft)
12.10.2014 22:30 9,6 C 89 % 1013,7 hPa 0,0 l/m 0,0 km/h (0 Bft) S-SO 157 7,9 C 22,8 C 0,0 km/h (0 Bft)
12.10.2014 22:40 10,2 C 90 % 1013,7 hPa 0,0 l/m 0,0 km/h (0 Bft) S-SO 157 8,6 C 22,8 C 0,0 km/h (0 Bft)
12.10.2014 22:50 9,8 C 89 % 1013,6 hPa 0,0 l/m 0,0 km/h (0 Bft) S-SO 157 8,1 C 22,8 C 0,0 km/h (0 Bft)
12.10.2014 23:00 9,0 C 89 % 1013,6 hPa 0,0 l/m 0,0 km/h (0 Bft) S-SO 157 7,3 C 22,8 C 0,0 km/h (0 Bft)
12.10.2014 23:10 8,8 C 90 % 1013,4 hPa 0,0 l/m 0,0 km/h (0 Bft) S-SO 157 7,3 C 22,8 C 0,0 km/h (0 Bft)
12.10.2014 23:20 8,9 C 90 % 1013,4 hPa 0,0 l/m 0,0 km/h (0 Bft) S-SO 157 7,4 C 22,8 C 0,0 km/h (0 Bft)
12.10.2014 23:30 8,7 C 90 % 1013,6 hPa 0,0 l/m 0,0 km/h (0 Bft) S-SO 157 7,2 C 22,8 C 0,0 km/h (0 Bft)
12.10.2014 23:40 8,5 C 90 % 1013,6 hPa 0,0 l/m 0,0 km/h (0 Bft) S-SO 157 7,0 C 22,8 C 0,0 km/h (0 Bft)
12.10.2014 23:50 8,6 C 90 % 1013,6 hPa 0,0 l/m 0,0 km/h (0 Bft) S-SO 157 7,1 C 22,8 C 0,0 km/h (0 Bft)
_ Min-Zeit 08:10 15:20 23:20 - 23:50 - - 06:40 23:50 23:50
Minimum _ 5,8 C 54 % 1013,4 hPa - 0,0 km/h (0 Bft) - - 5,1 C 22,8 C 0,0 km/h (0 Bft)
_ Max-Zeit 15:30 10:10 00:40 23:50 23:50 - - 12:30 23:50 23:50
Maximum _ 21,9 C 95 % 1019,4 hPa 0,0 l/m 0,0 km/h
S-SO (0 Bft)
- - 14,0 C 22,8 C 0,0 km/h
S-SO (0 Bft)
Durchschnitt _ 12,0 C 83 % 1016,8 hPa #0,0 l/m 0,0 km/h (0 Bft) - - - 8,9 C 22,8 C 0,0 km/h (0 Bft)